Detroit, MI

5:37 AM EDT on June 25, 2017 (GMT -0400)
Detroit City

Weather History for KDET - April, 2013

Change the Weather History Date:

Monday, April 15, 2013

  Actual Average Record
Temperature  
Mean Temperature 52 °F -  
Max Temperature 69 °F 57 °F 84 °F (2002)
Min Temperature 37 °F 40 °F 26 °F (1981)
Degree Days  
Heating Degree Days 12    
Growing Degree Days 2 (Base 50)    
Moisture  
Dew Point 44 °F    
Average Humidity 68    
Maximum Humidity 89    
Minimum Humidity 50    
Precipitation  
Precipitation 0.01 in - - ()
Sea Level Pressure  
Sea Level Pressure 29.95 in    
Wind  
Wind Speed 9 mph (SSE)    
Max Wind Speed 21 mph    
Max Gust Speed 29 mph    
Visibility 10 miles    
Events Rain    
Averages and records for this station are not official NWS values.
T = Trace of Precipitation, MM = Missing Value Source: NWS Daily Summary

Daily Weather History Graph

Daily Weather History Graph

Search for Another Location

Airport or City:

Trip Planner

Search our weather history database for the weather conditions in past years. The results will help you decide how hot, cold, wet, or windy it might be!

Date:

Astronomy

Apr. 15, 2013 Rise Set
Actual Time 6:50 AM EDT 8:14 PM EDT
Civil Twilight 6:21 AM EDT 8:43 PM EDT
Nautical Twilight 5:46 AM EDT 9:18 PM EDT
Astronomical Twilight 5:09 AM EDT 9:56 PM EDT
Moon 10:12 AM EDT (4/15) 12:28 AM EDT (4/15)
Length of Visible Light 14h 21m
Length of Day
13h 23m
Waxing Crescent, 24% of the Moon is Illuminated
Apr 15
Waxing Crescent
Apr 18
First Quarter
Apr 25
Full
May 2
Last Quarter
May 9
New

Hourly Weather History & Observations

Time (EDT) Temp. Windchill Dew Point Humidity Pressure Visibility Wind Dir Wind Speed Gust Speed Precip Events Conditions
12:53 AM 39.0 °F 33.4 °F 33.1 °F 79% 29.96 in 10.0 mi ESE 8.1 mph - N/A   Clear
1:53 AM 39.0 °F 33.4 °F 34.0 °F 82% 29.95 in 10.0 mi East 8.1 mph - N/A   Clear
2:53 AM 39.9 °F 33.4 °F 34.0 °F 79% 29.94 in 10.0 mi ESE 10.4 mph - N/A   Clear
3:53 AM 39.9 °F 35.8 °F 34.0 °F 79% 29.94 in 10.0 mi East 5.8 mph - N/A   Clear
4:53 AM 37.9 °F - 33.1 °F 83% 29.96 in 10.0 mi Calm Calm - N/A   Clear
5:53 AM 37.0 °F 34.5 °F 34.0 °F 89% 29.98 in 10.0 mi East 3.5 mph - N/A   Clear
6:53 AM 37.0 °F - 34.0 °F 89% 29.99 in 10.0 mi Calm Calm - N/A   Clear
7:53 AM 41.0 °F 37.1 °F 36.0 °F 82% 29.99 in 10.0 mi ESE 5.8 mph - N/A   Clear
8:53 AM 46.0 °F 43.1 °F 37.9 °F 73% 29.99 in 10.0 mi SE 5.8 mph - N/A   Clear
9:53 AM 52.0 °F - 39.9 °F 63% 29.97 in 10.0 mi SE 11.5 mph - N/A   Clear
10:53 AM 60.1 °F - 45.0 °F 57% 29.99 in 10.0 mi South 12.7 mph - N/A   Clear
11:53 AM 64.0 °F - 46.9 °F 54% 29.96 in 10.0 mi South 13.8 mph - N/A   Clear
12:53 PM 64.9 °F - 48.0 °F 54% 29.96 in 10.0 mi South 19.6 mph 24.2 mph N/A   Clear
1:53 PM 68.0 °F - 48.9 °F 50% 29.94 in 10.0 mi SSW 19.6 mph 28.8 mph N/A   Partly Cloudy
2:53 PM 66.9 °F - 48.9 °F 52% 29.94 in 10.0 mi SSW 17.3 mph 28.8 mph N/A   Scattered Clouds
3:53 PM 68.0 °F - 48.9 °F 50% 29.91 in 10.0 mi South 20.7 mph 27.6 mph N/A   Clear
4:53 PM 66.9 °F - 50.0 °F 54% 29.90 in 10.0 mi South 15.0 mph - N/A   Scattered Clouds
5:53 PM 66.9 °F - 50.0 °F 54% 29.90 in 10.0 mi South 13.8 mph - N/A   Mostly Cloudy
6:53 PM 64.9 °F - 50.0 °F 58% 29.92 in 10.0 mi South 11.5 mph 20.7 mph N/A   Overcast
7:53 PM 64.0 °F - 50.0 °F 60% 29.92 in 10.0 mi South 11.5 mph - N/A   Overcast
8:53 PM 64.0 °F - 51.1 °F 63% 29.93 in 10.0 mi South 8.1 mph - N/A   Overcast
9:53 PM 61.0 °F - 53.1 °F 75% 29.94 in 9.0 mi South 9.2 mph - 0.01 in Rain Light Rain
10:53 PM 62.1 °F - 53.1 °F 72% 29.94 in 10.0 mi South 11.5 mph - 0.00 in Rain Light Rain
11:53 PM 61.0 °F - 52.0 °F 72% 29.92 in 10.0 mi South 10.4 mph - 0.00 in   Overcast